TimeEDT,TemperatureF,Dew PointF,Humidity,Sea Level PressureIn,VisibilityMPH,Wind Direction,Wind SpeedMPH,Gust SpeedMPH,PrecipitationIn,Events,Conditions,WindDirDegrees,DateUTC
12:15 AM,71.6,68.0,88,30.02,5.0,WSW,11.5,16.1,N/A,,Overcast,240,2013-09-12 04:15:00
12:35 AM,69.8,68.0,94,30.01,5.0,SW,11.5,17.3,N/A,,Overcast,230,2013-09-12 04:35:00
12:55 AM,69.8,68.0,94,30.01,5.0,WSW,9.2,-,N/A,,Overcast,240,2013-09-12 04:55:00
1:15 AM,69.8,68.0,94,30.01,5.0,SW,9.2,-,N/A,,Overcast,230,2013-09-12 05:15:00
1:35 AM,69.8,68.0,94,30.00,5.0,SW,6.9,-,N/A,,Overcast,230,2013-09-12 05:35:00
1:55 AM,69.8,68.0,94,30.00,5.0,SW,9.2,-,N/A,,Overcast,230,2013-09-12 05:55:00
2:15 AM,69.8,68.0,94,29.99,5.0,SW,6.9,-,N/A,,Overcast,220,2013-09-12 06:15:00
2:35 AM,69.8,68.0,94,29.99,5.0,SW,6.9,-,N/A,,Overcast,220,2013-09-12 06:35:00
2:55 AM,68.0,68.0,100,29.98,5.0,SSW,5.8,-,N/A,,Overcast,200,2013-09-12 06:55:00
3:15 AM,68.0,68.0,100,29.98,4.0,SW,4.6,-,N/A,,Overcast,220,2013-09-12 07:15:00
3:35 AM,68.0,68.0,100,29.98,4.0,SW,6.9,-,N/A,,Overcast,220,2013-09-12 07:35:00
3:55 AM,68.0,68.0,100,29.99,5.0,SW,5.8,-,N/A,,Mostly Cloudy,220,2013-09-12 07:55:00
4:15 AM,68.0,68.0,100,29.98,5.0,SSW,8.1,-,N/A,,Scattered Clouds,210,2013-09-12 08:15:00
4:35 AM,69.8,68.0,94,29.97,6.0,SSW,10.4,-,N/A,,Partly Cloudy,210,2013-09-12 08:35:00
4:55 AM,69.8,68.0,94,29.97,5.0,SSW,12.7,-,N/A,,Mostly Cloudy,210,2013-09-12 08:55:00
5:15 AM,69.8,68.0,94,29.97,5.0,SW,11.5,16.1,N/A,,Mostly Cloudy,220,2013-09-12 09:15:00
5:35 AM,69.8,68.0,94,29.97,5.0,SW,11.5,-,N/A,,Mostly Cloudy,220,2013-09-12 09:35:00
5:55 AM,69.8,68.0,94,29.97,6.0,SW,12.7,18.4,N/A,,Overcast,230,2013-09-12 09:55:00
6:15 AM,71.6,68.0,88,29.97,7.0,SW,16.1,-,N/A,,Overcast,230,2013-09-12 10:15:00
6:35 AM,71.6,68.0,88,29.97,5.0,SW,12.7,19.6,N/A,,Overcast,230,2013-09-12 10:35:00
6:55 AM,71.6,68.0,88,29.97,5.0,SW,16.1,24.2,N/A,,Overcast,230,2013-09-12 10:55:00
7:15 AM,71.6,68.0,88,29.97,5.0,SW,13.8,20.7,N/A,,Overcast,230,2013-09-12 11:15:00
7:35 AM,71.6,68.0,88,29.96,6.0,SW,17.3,21.9,N/A,,Scattered Clouds,230,2013-09-12 11:35:00
8:15 AM,73.4,68.0,83,29.96,8.0,SW,18.4,-,N/A,,Clear,230,2013-09-12 12:15:00
8:35 AM,73.4,68.0,83,29.96,9.0,SW,17.3,24.2,N/A,,Partly Cloudy,230,2013-09-12 12:35:00
8:55 AM,73.4,68.0,83,29.96,9.0,SW,16.1,25.3,N/A,,Partly Cloudy,230,2013-09-12 12:55:00
9:15 AM,75.2,68.0,78,29.96,9.0,SW,17.3,23.0,N/A,,Mostly Cloudy,220,2013-09-12 13:15:00
9:35 AM,75.2,68.0,78,29.95,10.0,SW,15.0,24.2,N/A,,Scattered Clouds,230,2013-09-12 13:35:00
9:55 AM,77.0,69.8,78,29.95,10.0,SW,17.3,28.8,N/A,,Partly Cloudy,230,2013-09-12 13:55:00
10:15 AM,75.2,68.0,78,29.94,10.0,SW,21.9,29.9,N/A,,Scattered Clouds,220,2013-09-12 14:15:00
10:35 AM,77.0,69.8,78,29.94,10.0,SW,18.4,25.3,N/A,,Scattered Clouds,230,2013-09-12 14:35:00
10:55 AM,77.0,69.8,78,29.93,10.0,SW,15.0,27.6,N/A,,Mostly Cloudy,220,2013-09-12 14:55:00
11:15 AM,77.0,69.8,78,29.92,10.0,SW,19.6,27.6,N/A,,Scattered Clouds,230,2013-09-12 15:15:00
11:35 AM,77.0,69.8,78,29.92,10.0,SW,16.1,27.6,N/A,,Mostly Cloudy,230,2013-09-12 15:35:00
11:55 AM,78.8,69.8,74,29.91,10.0,SW,20.7,29.9,N/A,,Mostly Cloudy,220,2013-09-12 15:55:00
12:15 PM,78.8,69.8,74,29.91,10.0,SW,18.4,29.9,N/A,,Overcast,230,2013-09-12 16:15:00
12:35 PM,78.8,71.6,78,29.91,10.0,SW,21.9,27.6,N/A,,Overcast,220,2013-09-12 16:35:00
12:55 PM,78.8,71.6,78,29.90,10.0,SW,23.0,27.6,N/A,,Mostly Cloudy,230,2013-09-12 16:55:00
1:15 PM,78.8,71.6,78,29.89,10.0,SW,18.4,29.9,N/A,,Mostly Cloudy,220,2013-09-12 17:15:00
1:35 PM,-9999,-9999,N/A,29.88,-9999.0,SW,17.3,-,N/A,,Unknown,220,2013-09-12 17:35:00
1:55 PM,78.8,71.6,78,29.88,10.0,SW,23.0,28.8,N/A,,Overcast,220,2013-09-12 17:55:00
2:15 PM,77.0,69.8,78,29.87,10.0,SW,16.1,26.5,N/A,,Overcast,220,2013-09-12 18:15:00
2:35 PM,77.0,69.8,78,29.87,10.0,SW,19.6,26.5,N/A,,Overcast,220,2013-09-12 18:35:00
2:55 PM,77.0,69.8,78,29.86,10.0,SW,20.7,26.5,N/A,,Overcast,230,2013-09-12 18:55:00
3:15 PM,77.0,69.8,78,29.85,10.0,SW,20.7,28.8,N/A,,Overcast,220,2013-09-12 19:15:00
3:35 PM,75.2,69.8,83,29.84,10.0,SW,21.9,27.6,N/A,,Overcast,220,2013-09-12 19:35:00
3:55 PM,77.0,69.8,78,29.83,10.0,SW,23.0,27.6,N/A,,Overcast,220,2013-09-12 19:55:00
4:15 PM,75.2,69.8,83,29.83,10.0,SW,19.6,28.8,N/A,,Overcast,220,2013-09-12 20:15:00
4:35 PM,75.2,69.8,83,29.82,10.0,SW,18.4,27.6,N/A,,Overcast,220,2013-09-12 20:35:00
4:55 PM,75.2,68.0,78,29.81,10.0,SSW,16.1,26.5,N/A,,Overcast,210,2013-09-12 20:55:00
5:15 PM,75.2,69.8,83,29.80,10.0,SSW,16.1,23.0,N/A,,Mostly Cloudy,200,2013-09-12 21:15:00
5:35 PM,75.2,68.0,78,29.80,10.0,SSW,16.1,20.7,N/A,,Mostly Cloudy,210,2013-09-12 21:35:00
5:55 PM,73.4,68.0,83,29.80,10.0,SSW,16.1,20.7,N/A,,Scattered Clouds,210,2013-09-12 21:55:00
6:15 PM,73.4,68.0,83,29.80,9.0,SSW,16.1,-,N/A,,Mostly Cloudy,200,2013-09-12 22:15:00
6:35 PM,71.6,68.0,88,29.80,9.0,SSW,12.7,19.6,N/A,,Mostly Cloudy,210,2013-09-12 22:35:00
6:55 PM,71.6,68.0,88,29.78,9.0,SSW,12.7,-,N/A,,Overcast,200,2013-09-12 22:55:00
7:15 PM,71.6,68.0,88,29.78,10.0,SSW,16.1,-,N/A,,Overcast,200,2013-09-12 23:15:00
7:35 PM,71.6,68.0,88,29.78,10.0,SSW,12.7,19.6,N/A,,Overcast,200,2013-09-12 23:35:00
7:55 PM,71.6,68.0,88,29.78,10.0,SSW,16.1,21.9,N/A,,Mostly Cloudy,200,2013-09-12 23:55:00
8:15 PM,71.6,68.0,88,29.78,10.0,SSW,13.8,-,N/A,,Scattered Clouds,210,2013-09-13 00:15:00
8:35 PM,71.6,68.0,88,29.77,10.0,SSW,13.8,23.0,N/A,,Partly Cloudy,200,2013-09-13 00:35:00
8:55 PM,71.6,68.0,88,29.77,10.0,SSW,15.0,19.6,N/A,,Clear,210,2013-09-13 00:55:00
9:15 PM,71.6,68.0,88,29.77,10.0,SSW,12.7,19.6,N/A,,Partly Cloudy,210,2013-09-13 01:15:00
9:35 PM,71.6,68.0,88,29.76,10.0,SSW,11.5,-,N/A,,Mostly Cloudy,200,2013-09-13 01:35:00
9:55 PM,71.6,68.0,88,29.76,10.0,SSW,15.0,-,N/A,Thunderstorm,Overcast,210,2013-09-13 01:55:00
10:15 PM,71.6,68.0,88,29.75,10.0,SSW,15.0,23.0,N/A,,Overcast,210,2013-09-13 02:15:00
10:35 PM,71.6,68.0,88,29.75,10.0,SSW,16.1,21.9,N/A,,Overcast,200,2013-09-13 02:35:00
10:55 PM,71.6,68.0,88,29.75,10.0,SSW,16.1,-,N/A,,Overcast,200,2013-09-13 02:55:00
11:15 PM,71.6,68.0,88,29.74,10.0,SSW,13.8,20.7,N/A,,Overcast,210,2013-09-13 03:15:00
11:35 PM,71.6,66.2,83,29.74,10.0,SSW,12.7,-,N/A,,Overcast,210,2013-09-13 03:35:00
11:55 PM,71.6,66.2,83,29.73,10.0,SW,16.1,21.9,N/A,,Overcast,220,2013-09-13 03:55:00